Voltar ao catálogo

SL-14 DEB

AtivoPO
NORAD 39976·DEBRIS·🇷🇺 Russia

Lançado Aug 18, 1987 de Plesetsk Cosmodrome

Loading…

Próximas Passagens (próximas 24 horas)

TLE

EnvelhecendoSource: Space-Track

Época: Sep 9, 2026, 06:28 UTC

1 39976U 87068DC  26252.26990587  .00000792  00000-0  48931-3 0  9992
2 39976  82.5437  89.3969 0010396  95.3732 264.8626 14.04232316143993

Acompanhe SL-14 DEB em tempo real com AllMySat

Download on the App Store